CZ-6A DEB, 61463

Orbit data source: Space-Track

CZ-6A DEB, 61463 is space debris in LEO originally from a launch on Tue, 06 Aug 2024 UTC launched from the Taiyaun Space Center, China (TSC). Debris objects in space refer to the collection of defunct objects orbiting the Earth. Examples of debris include non-operational satellites, rocket bodies, and fragments generated from explosions, collisions, or faulty payload assembly.

Loading next visibility...
Identifier
61463, 2024-140ZV
Orbit
LEO
Country
Flag of CNCN / PRC
Related business
Manufacturer
SAST
Mission
Spacecraft
Bus & Motor
Unknown
Mass
Unknown
Launch date (UTC)
2024-08-06 (2 years ago)
Launch vehicle
Unknown
Launch site
Taiyaun Space Center, China (TSC)
Object type
Payload
Rocket body
Debris
Shape & HBR
Unknown shape, 0.1 m
Radar Cross Section
Medium (>0.1 m² and <1 m²)

Expand to show TLE details & history
Last TLE update: 17 hours ago

TLE from 17 hours ago
0 CZ-6A DEB
1 61463U 24140ZV  26171.28626093  .00001689  00000-0  74810-3 0  9991
2 61463  89.0100 275.0347 0051876 171.9129 188.2911 14.22003218 91143
Epoch: 2026-06-20T06:52Z
TLE epoch observation values (Epoch: 2026-06-20T06:52:12.944Z)
Latitude
-0.00001°
Longitude
-96.5223°
Altitude
858.598 km
Speed
7.404 km/s
True Right ascension
18h 20m 08s
True Declination
0° 00' 00"
Sunlit
Object was in full shadow at epoch
Visualization orbit readout
Latitude
Unknown
Longitude
Unknown
Altitude
Unknown
Speed
Unknown
Apparent Right ascension
Unknown
Apparent Declination
Unknown
Sunlit
N/A
Visualization observer readout
Local Sidereal Time
10:19:50
Azimuth
Unknown
Elevation
Unknown
Doppler factor
Unknown
Orbital elements
Apogee altitude
852.852 km
Perigee altitude
778.216 km
Semi-major axis
7,193.671 km
Eccentricity
0.00519
Inclination
89.01°
RAAN
275.0347°
Arg. of periapsis
171.9129°
True anomaly
188.20592°
Mean anomaly
188.2911°
Eccentric anomaly
188.24846°
Mean motion
3.55727 °/min
Orbital period
101.2 mins
BSTAR
0.0007481
Loading maneuver chart data...
Computing Atmospheric mass density...
Loading historical data...
Loading historical data...
Loading historical data...
Loading historical data...
Loading historical data...
Loading historical data...
Loading historical data...

Documentation

Showing up to 5 results
|